Lid_Strength_Index
4 4 3 3 2 2 2 2 1 1 2 2 1 1 1 0 0 1 1 0 0 0 1 0 0 -1 -0 -0 -1 -0 -0 -0 0
6 6 5 4 3 2 2 1 1 1 1 1 1 1 1 1 1 0 1 0 0 0 -0 0 1 -0 -0 -0 -0 -0 -0 0 1
6 6 5 4 4 2 2 2 1 1 1 1 1 1 1 1 1 0 0 0 0 -0 -0 -0 0 1 0 -0 -0 -0 -0 0 0
5 4 4 4 3 2 2 1 1 1 1 1 1 1 1 1 1 1 0 1 0 0 -0 -0 0 0 0 0 0 0 0 0 0
4 4 3 3 2 2 1 1 1 1 2 1 1 1 1 1 1 1 1 1 1 0 0 -0 -0 0 0 0 0 0 1 1 1
4 4 3 3 3 3 2 2 2 2 0 0 0 1 1 1 1 1 1 1 0 0 0 0 0 0 1 1 0 0 0 0 1
5 4 4 3 3 3 3 2 2 1 1 -1 -1 0 1 1 1 1 1 0 0 0 0 1 1 0 0 0 0 0 0 0 1
4 4 4 4 4 3 3 2 2 1 1 0 -0 -0 1 0 0 -1 0 0 -0 0 0 0 0 0 0 0 0 0 1 3 1
5 4 4 3 3 3 3 3 2 2 1 1 1 1 1 -0 -1 -0 0 0 -0 -0 0 -0 -0 0 0 1 0 2 2 0 1
5 4 4 3 3 3 2 2 2 2 1 1 1 1 1 1 1 1 0 1 0 1 1 1 1 1 1 0 0 3 3 2 0
4 4 3 3 3 2 2 1 1 1 1 1 2 2 2 1 1 1 1 1 1 1 0 1 1 1 0 1 1 3 4 3 0
3 3 3 2 2 2 1 2 1 1 1 1 1 2 2 1 1 1 1 1 0 0 1 1 1 1 1 1 0 3 4 2 0
3 2 2 2 2 2 2 1 1 2 2 2 2 1 1 0 0 0 1 1 0 -0 0 1 1 1 0 2 1 2 5 3 1
2 2 2 1 1 2 1 1 1 2 2 2 1 0 0 0 -0 0 -0 -0 -1 -0 0 0 1 1 1 1 1 0 5 5 1
3 2 2 2 2 2 1 1 1 2 2 1 0 -0 0 0 -1 0 0 -0 0 0 1 1 1 2 1 1 0 3 4 5 6
3 2 2 2 2 2 1 0 1 2 1 0 0 0 0 -0 -0 -0 -1 0 1 1 1 2 2 2 2 2 1 1 4 6 5
3 2 2 1 2 2 2 1 0 1 1 0 0 1 0 -0 1 -0 -1 1 0 1 2 2 2 2 2 2 1 1 1 1 0
3 2 2 2 2 1 2 1 -1 0 0 0 0 0 1 1 1 1 1 0 0 1 0 1 1 1 1 2 2 1 7 7 2
2 2 2 2 1 1 0 0 -0 -1 0 -0 1 1 2 1 0 1 1 0 2 8 7 9 9 10 4 2 6 9 11 11 9
3 2 2 2 1 1 1 -0 -0 -0 0 -0 1 1 1 0 1 1 1 0 2 2 5 9 11 11 10 10 9 9 11 11 11